FENGYUN 1C DEB, 31456

Orbit data source: Space-Track

FENGYUN 1C DEB, 31456 is space debris in SSO originally from a launch on Mon, 10 May 1999 UTC launched from the Taiyaun Space Center, China (TSC). Fengyun 1C debris stems from the Chinese weather satellite Fengyun-1C, which was intentionally destroyed by a Chinese anti-satellite missile in 2007. This event dramatically increased the amount of space debris, with thousands of trackable fragments posing hazards to satellites and human spaceflight. The Fengyun 1C debris cloud has become a focal point in discussions about space sustainability and the need for international regulations to prevent the creation of new debris.

Loading next visibility...
Identifier
31456, 1999-025BUU
Orbit
SSO
Country
Flag of CNCN / PRC
Related business
Manufacturer
Unknown
Mission
Spacecraft
Bus & Motor
Unknown
Mass
Unknown
Launch date (UTC)
1999-05-10 (27 years ago)
Launch vehicle
Unknown
Launch site
Taiyaun Space Center, China (TSC)
Object type
Payload
Rocket body
Debris
Shape & HBR
Unknown shape, 0.1 m
Radar Cross Section
Small (<0.1 m²)

Expand to show TLE details & history
Last TLE update: 2 days ago

TLE from 2 days ago
0 FENGYUN 1C DEB
1 31456U 99025BUU 26168.01595712  .00002047  00000-0  60108-3 0  9998
2 31456  98.5830 276.5871 0068903 115.0009 245.8358 14.43496589  1450
Epoch: 2026-06-17T00:22Z
TLE epoch observation values (Epoch: 2026-06-17T00:22:58.695Z)
Latitude
0.00007°
Longitude
5.56283°
Altitude
770.301 km
Speed
7.458 km/s
True Right ascension
18h 26m 20s
True Declination
0° 00' 00"
Sunlit
Object was in full shadow at epoch
Visualization orbit readout
Latitude
Unknown
Longitude
Unknown
Altitude
Unknown
Speed
Unknown
Apparent Right ascension
Unknown
Apparent Declination
Unknown
Sunlit
N/A
Visualization observer readout
Local Sidereal Time
10:29:37
Azimuth
Unknown
Elevation
Unknown
Doppler factor
Unknown
Orbital elements
Apogee altitude
793.164 km
Perigee altitude
695.016 km
Semi-major axis
7,122.227 km
Eccentricity
0.00689
Inclination
98.583°
RAAN
276.5871°
Arg. of periapsis
115.0009°
True anomaly
245.11797°
Mean anomaly
245.8358°
Eccentric anomaly
245.47663°
Mean motion
3.61093 °/min
Orbital period
99.7 mins
BSTAR
0.00060108
Loading maneuver chart data...
Computing Atmospheric mass density...

Documentation

Showing up to 5 results
|